User: anonymous   Login
Location: Unspecified
(0.0000°N, 0.0000°E)
Time: 20:39:29
(UTC+00:00)
Language:

DELFI C3 - Orbit

View from above orbital plane
View from above orbital plane
View from above satellite
View from above satellite

Ground track
Ground track

The orbit data is extracted from the following two-line orbital elements,

1 32789U 08021G   18261.71791906 +.00000697 +00000-0 +51543-4 0  9992
2 32789 097.5033 314.1254 0011779 345.9188 014.1709 15.06300647565764
Epoch (UTC): 18 September 2018 17:13:48
Eccentricity: 0.0011779
inclination: 97.5033°
perigee height: 539 km
apogee height: 555 km
right ascension of ascending node: 314.1254°
argument of perigee: 345.9188°
revolutions per day: 15.06300647
mean anomaly at epoch: 14.1709°
orbit number at epoch: 56576

The dashed part of the orbit path shows where the satellite is in the earth's shadow,  

DLR